Terminal Aerodrome Forecast
Issued by NWS

Home | Current Version | Previous Version | Text Only | Print | Product List | Glossary On
Versions: 1 2 3 4 5 6 7 8 9 10 11 12 13 14 15 16 17 18
000
FTUS42 TJSJ 281137
TAFJBQ
TAF
TJBQ 281137Z 2812/2912 11007KT P6SM VCSH SCT100
     FM281400 09014KT P6SM FEW025
     FM281700 09016G25KT P6SM -SHRA VCTS SCT025CB BKN040 BKN060
     FM282300 09009KT P6SM FEW025 SCT060
     FM290100 11007KT P6SM SCT024=

USA.gov is the U.S. government's official web portal to all federal, state and local government web resources and services.